User: anonymous   Login
Location: Castro Valley
(37.6940°N, 122.0850°W)
Time: 15:28:21
(UTC-07:00)
Language:

PANSAT - Orbit

View from above orbital plane
View from above orbital plane
View from above satellite
View from above satellite

Ground track
Ground track

The orbit data is extracted from the following two-line orbital elements,

1 25520U 98064B   15185.17867561  .00001863  00000-0  61528-4 0  9996
2 25520 028.4561 161.5787 0004850 015.3378 083.5755 15.26363713925007
Epoch (UTC): 04 July 2015 04:17:17
Eccentricity: 0.0004850
inclination: 28.4561°
perigee height: 483 km
apogee height: 490 km
right ascension of ascending node: 161.5787°
argument of perigee: 15.3378°
revolutions per day: 15.26363713
mean anomaly at epoch: 83.5755°
orbit number at epoch: 92500

The dashed part of the orbit path shows where the satellite is in the earth's shadow,  

DLR